QPF
0.00 0.00 0.00 0.00 0.00 0.00 0.00 0.00 0.00 0.00 0.01 0.00 0.01 0.03 0.07 0.04 0.09 0.03 0.00 0.00 0.00 0.00 0.00 0.00 0.00 0.00 0.00 0.00 0.00 0.00 0.00 0.00 0.00 0.00 0.00 0.00 0.00 0.00 0.00 0.00 0.00 0.00 0.00 0.00
0.00 0.00 0.00 0.00 0.00 0.00 0.00 0.00 0.00 0.00 0.00 0.00 0.04 0.09 0.07 0.09 0.09 0.02 0.03 0.02 0.01 0.01 0.00 0.00 0.00 0.00 0.00 0.00 0.00 0.00 0.00 0.00 0.00 0.00 0.00 0.00 0.00 0.00 0.00 0.00 0.00 0.00 0.00 0.00
0.00 0.00 0.00 0.00 0.00 0.00 0.00 0.00 0.00 0.00 0.00 0.01 0.02 0.05 0.05 0.05 0.12 0.06 0.07 0.04 0.02 0.01 0.00 0.00 0.00 0.00 0.00 0.00 0.00 0.00 0.00 0.00 0.00 0.00 0.00 0.00 0.00 0.00 0.00 0.00 0.00 0.00 0.00 0.00
0.00 0.00 0.00 0.00 0.00 0.00 0.00 0.00 0.00 0.00 0.00 0.02 0.03 0.02 0.01 0.04 0.14 0.08 0.09 0.01 0.00 0.01 0.00 0.00 0.00 0.00 0.00 0.00 0.00 0.00 0.00 0.00 0.00 0.00 0.00 0.00 0.00 0.00 0.00 0.00 0.00 0.00 0.00 0.00
0.00 0.00 0.00 0.00 0.00 0.00 0.00 0.00 0.00 0.00 0.00 0.01 0.04 0.02 0.00 0.02 0.06 0.07 0.07 0.00 0.00 0.00 0.01 0.00 0.00 0.00 0.00 0.00 0.00 0.00 0.00 0.00 0.00 0.00 0.00 0.00 0.00 0.00 0.00 0.00 0.00 0.00 0.00 0.00
0.00 0.00 0.00 0.00 0.00 0.00 0.00 0.00 0.00 0.00 0.00 0.03 0.08 0.04 0.01 0.03 0.04 0.09 0.03 0.00 0.00 0.01 0.00 0.00 0.00 0.00 0.00 0.00 0.00 0.00 0.00 0.00 0.00 0.00 0.00 0.00 0.00 0.00 0.00 0.00 0.00 0.00 0.00 0.00
0.00 0.00 0.00 0.00 0.00 0.00 0.00 0.00 0.00 0.00 0.00 0.07 0.07 0.01 0.02 0.05 0.10 0.02 0.01 0.01 0.00 0.00 0.01 0.00 0.00 0.00 0.00 0.00 0.00 0.00 0.00 0.00 0.00 0.00 0.00 0.00 0.00 0.00 0.00 0.00 0.00 0.00 0.00 0.00
0.00 0.00 0.00 0.00 0.00 0.00 0.00 0.00 0.00 0.00 0.00 0.04 0.01 0.01 0.01 0.01 0.03 0.02 0.03 0.01 0.01 0.00 0.00 0.00 0.00 0.00 0.00 0.00 0.00 0.00 0.00 0.00 0.00 0.00 0.00 0.00 0.00 0.00 0.00 0.00 0.00 0.00 0.00 0.00
0.00 0.00 0.00 0.00 0.00 0.00 0.00 0.00 0.00 0.00 0.00 0.01 0.00 0.02 0.00 0.03 0.06 0.00 0.00 0.04 0.01 0.00 0.00 0.00 0.00 0.00 0.00 0.00 0.00 0.00 0.00 0.00 0.00 0.00 0.00 0.00 0.00 0.00 0.00 0.00 0.00 0.00 0.00 0.00
0.00 0.00 0.00 0.00 0.00 0.00 0.00 0.00 0.00 0.00 0.00 0.01 0.02 0.01 0.01 0.03 0.03 0.04 0.04 0.05 0.00 0.00 0.00 0.00 0.00 0.00 0.00 0.00 0.00 0.00 0.00 0.00 0.00 0.00 0.00 0.00 0.00 0.00 0.00 0.00 0.00 0.00 0.00 0.00
0.00 0.00 0.00 0.00 0.00 0.00 0.00 0.00 0.00 0.00 0.00 0.01 0.02 0.01 0.00 0.00 0.00 0.00 0.00 0.00 0.00 0.00 0.00 0.00 0.00 0.00 0.00 0.00 0.00 0.00 0.00 0.00 0.00 0.00 0.00 0.00 0.00 0.00 0.00 0.00 0.00 0.00 0.00 0.00
0.00 0.00 0.00 0.00 0.00 0.00 0.00 0.00 0.00 0.01 0.01 0.00 0.01 0.01 0.00 0.00 0.00 0.00 0.00 0.00 0.00 0.00 0.00 0.00 0.00 0.00 0.00 0.00 0.00 0.00 0.00 0.00 0.00 0.00 0.00 0.00 0.01 0.01 0.00 0.00 0.00 0.00 0.00 0.00
0.00 0.00 0.00 0.00 0.00 0.00 0.00 0.00 0.00 0.00 0.00 0.00 0.01 0.00 0.00 0.00 0.00 0.00 0.00 0.00 0.00 0.00 0.00 0.00 0.00 0.00 0.00 0.00 0.00 0.00 0.00 0.00 0.00 0.00 0.00 0.00 0.00 0.00 0.00 0.00 0.00 0.00 0.00 0.00
0.00 0.00 0.00 0.00 0.00 0.00 0.00 0.00 0.00 0.00 0.00 0.00 0.00 0.00 0.00 0.00 0.00 0.00 0.00 0.00 0.00 0.00 0.00 0.00 0.00 0.00 0.00 0.00 0.00 0.00 0.00 0.00 0.00 0.00 0.00 0.00 0.00 0.00 0.00 0.00 0.00 0.00 0.00 0.00
0.00 0.00 0.00 0.00 0.00 0.00 0.00 0.00 0.00 0.00 0.00 0.00 0.00 0.00 0.00 0.00 0.00 0.00 0.00 0.00 0.00 0.00 0.00 0.00 0.00 0.00 0.00 0.00 0.00 0.00 0.00 0.00 0.00 0.00 0.00 0.00 0.00 0.00 0.00 0.00 0.00 0.01 0.00 0.00
0.00 0.00 0.00 0.00 0.00 0.00 0.00 0.00 0.00 0.00 0.00 0.00 0.00 0.00 0.00 0.00 0.00 0.00 0.00 0.00 0.00 0.00 0.00 0.00 0.00 0.00 0.00 0.00 0.00 0.00 0.00 0.00 0.00 0.00 0.00 0.00 0.00 0.00 0.00 0.00 0.00 0.01 0.01 0.01
0.00 0.00 0.00 0.00 0.00 0.00 0.00 0.00 0.00 0.00 0.00 0.00 0.00 0.00 0.00 0.00 0.00 0.00 0.00 0.00 0.00 0.00 0.00 0.00 0.00 0.00 0.00 0.00 0.00 0.00 0.00 0.00 0.00 0.00 0.00 0.00 0.00 0.00 0.00 0.00 0.00 0.00 0.00 0.00
0.00 0.00 0.01 0.01 0.00 0.00 0.00 0.00 0.00 0.00 0.00 0.00 0.00 0.00 0.00 0.00 0.00 0.00 0.00 0.00 0.00 0.00 0.00 0.00 0.00 0.00 0.00 0.00 0.00 0.00 0.00 0.00 0.00 0.00 0.00 0.00 0.00 0.00 0.00 0.00 0.00 0.00 0.00 0.00
0.00 0.00 0.01 0.01 0.00 0.00 0.00 0.00 0.00 0.00 0.00 0.00 0.01 0.01 0.00 0.00 0.00 0.00 0.00 0.01 0.02 0.01 0.00 0.00 0.00 0.00 0.00 0.00 0.00 0.00 0.00 0.00 0.00 0.00 0.00 0.00 0.00 0.00 0.00 0.00 0.00 0.00 0.00 0.00
0.00 0.00 0.01 0.02 0.02 0.00 0.00 0.00 0.00 0.00 0.02 0.02 0.04 0.04 0.01 0.00 0.00 0.01 0.01 0.01 0.02 0.03 0.01 0.01 0.00 0.00 0.00 0.00 0.00 0.00 0.00 0.00 0.00 0.00 0.00 0.00 0.00 0.00 0.00 0.00 0.01 0.01 0.00 0.00
0.00 0.01 0.02 0.01 0.01 0.01 0.00 0.00 0.00 0.01 0.03 0.03 0.01 0.02 0.01 0.02 0.04 0.02 0.02 0.00 0.01 0.01 0.02 0.02 0.01 0.00 0.00 0.00 0.00 0.00 0.00 0.00 0.00 0.00 0.00 0.00 0.00 0.00 0.00 0.00 0.02 0.01 0.00 0.00
0.00 0.00 0.00 0.00 0.00 0.01 0.00 0.00 0.00 0.01 0.02 0.00 0.00 0.00 0.00 0.00 0.00 0.00 0.00 0.00 0.00 0.02 0.03 0.04 0.02 0.01 0.03 0.02 0.01 0.00 0.00 0.00 0.00 0.00 0.00 0.00 0.00 0.00 0.00 0.00 0.00 0.00 0.00 0.00
0.00 0.00 0.00 0.00 0.00 0.00 0.00 0.00 0.00 0.00 0.00 0.00 0.00 0.00 0.00 0.00 0.00 0.00 0.00 0.00 0.00 0.01 0.03 0.02 0.03 0.04 0.04 0.03 0.01 0.00 0.00 0.00 0.00 0.00 0.00 0.00 0.00 0.00 0.00 0.00 0.00 0.00 0.00 0.00
0.00 0.00 0.00 0.00 0.00 0.00 0.00 0.00 0.00 0.00 0.00 0.00 0.00 0.00 0.00 0.00 0.00 0.00 0.00 0.00 0.00 0.00 0.00 0.02 0.05 0.06 0.01 0.01 0.01 0.00 0.00 0.01 0.00 0.00 0.00 0.00 0.01 0.01 0.00 0.00 0.00 0.00 0.00 0.00
0.00 0.00 0.00 0.00 0.00 0.00 0.00 0.00 0.00 0.00 0.00 0.00 0.00 0.00 0.00 0.00 0.00 0.00 0.00 0.00 0.00 0.00 0.00 0.01 0.01 0.04 0.05 0.08 0.07 0.07 0.03 0.02 0.02 0.00 0.00 0.01 0.02 0.08 0.01 0.00 0.00 0.00 0.00 0.00
0.00 0.00 0.00 0.00 0.00 0.00 0.00 0.00 0.00 0.00 0.00 0.00 0.00 0.00 0.00 0.00 0.00 0.00 0.00 0.00 0.00 0.00 0.00 0.00 0.00 0.01 0.03 0.08 0.20 0.14 0.07 0.05 0.04 0.02 0.03 0.02 0.03 0.08 0.04 0.02 0.00 0.00 0.00 0.00
MSLP
1006.10 1007.43 1008.42 1008.56 1009.27 1010.30 1011.77 1013.02 1014.09 1014.37 1014.85 1016.56 1017.83 1018.52 1019.57 1018.92 1020.02 1019.91 1020.20 1020.66 1021.11 1021.47 1021.87 1021.83 1022.05 1022.85 1023.45 1023.92 1024.14 1024.47 1024.69 1024.86 1024.64 1024.47 1024.36 1023.91 1023.82 1023.42 1023.02 1022.84 1022.55 1022.43 1022.30 1022.07
1007.48 1007.98 1008.06 1007.91 1008.92 1009.71 1010.71 1012.11 1012.73 1012.69 1014.81 1016.89 1017.59 1019.32 1020.08 1020.42 1021.09 1020.51 1020.95 1021.87 1022.07 1022.14 1022.17 1022.31 1022.28 1022.71 1023.26 1023.75 1024.10 1024.55 1024.77 1024.91 1024.70 1024.37 1024.39 1024.23 1023.98 1023.57 1023.24 1022.98 1022.65 1022.49 1022.28 1022.06
1008.03 1008.59 1008.09 1008.79 1009.04 1009.65 1010.46 1010.92 1011.46 1012.11 1013.82 1015.92 1017.12 1019.64 1020.44 1021.03 1022.03 1021.94 1022.78 1022.96 1023.35 1022.96 1022.21 1022.29 1022.03 1022.50 1022.91 1023.32 1023.79 1024.38 1024.82 1024.94 1024.73 1024.28 1024.27 1024.22 1023.85 1023.61 1023.42 1023.11 1022.89 1022.61 1022.33 1022.05
1007.77 1007.58 1008.86 1009.39 1009.93 1009.97 1010.97 1011.14 1011.19 1011.29 1012.74 1015.93 1016.90 1020.54 1021.23 1021.66 1022.91 1022.62 1023.01 1022.92 1023.11 1022.94 1022.04 1022.15 1022.22 1022.66 1022.66 1023.04 1023.83 1024.44 1024.69 1024.87 1024.69 1024.14 1024.31 1024.50 1024.47 1024.13 1023.76 1023.37 1023.06 1022.65 1022.22 1021.95
1008.56 1008.75 1008.93 1008.77 1009.52 1010.04 1010.12 1010.02 1010.22 1010.68 1011.91 1015.59 1018.31 1020.24 1022.29 1022.95 1023.28 1023.18 1022.78 1022.92 1022.98 1022.73 1021.95 1022.29 1022.47 1022.76 1022.61 1023.04 1024.23 1024.55 1024.84 1024.82 1024.55 1024.27 1024.24 1024.32 1024.36 1024.02 1023.68 1023.46 1023.16 1022.83 1022.35 1021.86
1008.67 1008.79 1009.25 1009.63 1009.83 1009.59 1009.69 1010.12 1010.83 1011.34 1013.36 1017.79 1020.25 1021.49 1022.94 1023.18 1023.33 1023.03 1022.57 1022.72 1022.50 1022.48 1022.50 1022.82 1022.61 1022.64 1023.15 1023.74 1024.27 1024.63 1024.68 1024.67 1024.30 1024.12 1024.04 1024.03 1024.09 1024.01 1023.88 1023.60 1023.35 1022.92 1022.49 1021.98
1009.14 1009.41 1009.80 1010.10 1010.37 1009.72 1010.00 1010.89 1012.05 1013.66 1015.52 1019.58 1021.00 1022.09 1023.50 1022.74 1022.45 1022.04 1021.97 1022.39 1022.38 1022.41 1022.88 1023.00 1022.67 1023.05 1023.23 1023.79 1024.16 1024.37 1024.37 1024.36 1024.18 1024.01 1023.87 1023.79 1023.76 1023.72 1023.68 1023.53 1023.26 1023.02 1022.68 1022.25
1009.60 1009.65 1010.00 1010.62 1010.56 1010.56 1010.65 1011.36 1013.11 1014.77 1017.28 1020.32 1021.50 1022.85 1022.98 1022.65 1022.14 1021.38 1021.48 1021.78 1022.12 1022.40 1022.48 1022.63 1022.79 1023.15 1023.37 1023.81 1024.23 1024.32 1024.22 1024.14 1024.04 1023.85 1023.69 1023.55 1023.51 1023.42 1023.31 1023.19 1022.96 1022.82 1022.60 1022.28
1010.06 1010.00 1009.67 1010.47 1010.44 1010.67 1011.38 1012.57 1012.96 1014.73 1018.03 1020.70 1023.12 1023.48 1023.14 1022.21 1022.08 1021.87 1022.06 1022.54 1022.84 1022.58 1022.58 1022.81 1022.97 1023.34 1023.84 1024.10 1024.20 1024.30 1024.19 1024.05 1023.91 1023.73 1023.57 1023.44 1023.29 1023.11 1023.04 1022.93 1022.78 1022.57 1022.39 1021.87
1010.95 1010.89 1010.97 1010.99 1010.66 1011.73 1012.75 1013.29 1014.14 1016.17 1019.06 1021.89 1023.53 1023.56 1022.96 1022.02 1021.66 1021.73 1021.84 1022.13 1022.50 1022.51 1022.75 1022.72 1023.29 1023.70 1023.83 1023.95 1024.22 1024.16 1023.95 1023.89 1023.75 1023.54 1023.42 1023.39 1023.12 1022.96 1022.91 1022.75 1022.61 1022.46 1022.17 1021.83
1011.59 1011.96 1012.83 1012.18 1013.68 1014.12 1014.50 1015.16 1015.83 1017.90 1019.75 1021.32 1023.09 1023.77 1022.22 1021.80 1021.42 1021.61 1021.60 1021.70 1022.10 1022.23 1022.87 1023.03 1023.04 1023.26 1023.68 1023.93 1023.95 1024.03 1023.93 1023.82 1023.62 1023.44 1023.27 1023.31 1023.06 1022.94 1022.85 1022.69 1022.49 1022.31 1022.10 1021.90
1012.53 1012.99 1014.00 1014.63 1014.81 1015.34 1016.00 1016.66 1016.97 1018.33 1020.40 1021.28 1022.17 1023.01 1021.86 1021.50 1021.46 1021.49 1021.70 1021.78 1021.64 1021.86 1022.47 1022.55 1022.87 1023.24 1023.62 1023.61 1023.83 1023.84 1023.82 1023.68 1023.43 1023.19 1023.13 1023.18 1022.95 1022.93 1022.77 1022.61 1022.42 1022.12 1022.10 1021.77
1013.42 1013.98 1015.11 1015.84 1015.61 1016.23 1016.87 1017.16 1017.54 1018.55 1019.58 1020.89 1021.94 1022.89 1021.76 1021.50 1021.46 1021.39 1021.52 1021.33 1021.41 1021.54 1021.87 1022.02 1022.40 1022.90 1023.38 1023.59 1023.72 1023.77 1023.66 1023.37 1023.16 1022.95 1022.96 1023.01 1022.88 1022.79 1022.50 1022.39 1022.26 1022.07 1021.85 1021.68
1014.22 1015.51 1016.42 1017.53 1018.05 1018.10 1017.98 1018.10 1018.31 1019.13 1020.37 1021.28 1022.26 1022.50 1022.09 1021.91 1021.73 1021.47 1021.50 1021.34 1021.37 1021.31 1021.42 1021.71 1022.13 1022.66 1023.10 1023.24 1023.41 1023.50 1023.38 1023.10 1023.00 1022.84 1022.81 1022.77 1022.61 1022.54 1022.23 1022.09 1022.10 1022.01 1021.64 1021.66
1015.61 1017.07 1017.65 1018.22 1018.36 1018.34 1018.41 1018.68 1019.24 1020.01 1020.74 1021.59 1022.50 1022.37 1022.21 1021.79 1021.53 1021.43 1021.40 1021.47 1021.46 1021.57 1021.70 1021.86 1022.28 1022.73 1023.10 1023.28 1023.16 1023.17 1023.08 1022.91 1022.83 1022.73 1022.62 1022.43 1022.31 1022.18 1022.02 1021.86 1021.85 1021.82 1021.74 1021.62
1016.08 1017.86 1018.43 1018.91 1018.74 1018.95 1019.16 1019.28 1019.78 1020.59 1021.37 1021.97 1022.40 1022.87 1022.54 1022.26 1021.65 1021.96 1022.00 1021.93 1021.97 1022.01 1021.98 1022.09 1022.15 1022.46 1022.76 1022.84 1023.00 1022.84 1022.76 1022.80 1022.48 1022.52 1022.44 1022.08 1021.89 1021.91 1021.83 1021.66 1021.63 1021.63 1021.59 1021.49
1016.97 1018.18 1019.14 1020.03 1019.79 1019.48 1020.09 1020.18 1020.33 1021.55 1022.61 1023.00 1023.64 1023.73 1023.12 1023.01 1022.92 1022.72 1022.54 1022.39 1022.23 1022.16 1022.12 1022.27 1022.34 1022.49 1022.66 1022.58 1022.46 1022.70 1022.56 1022.47 1022.48 1022.29 1022.06 1021.83 1021.68 1021.70 1021.43 1021.44 1021.41 1021.56 1021.45 1021.37
1017.30 1018.42 1019.62 1020.56 1020.61 1021.12 1021.15 1020.80 1021.03 1022.42 1023.86 1024.29 1024.41 1024.24 1024.05 1023.97 1023.69 1023.38 1023.28 1024.02 1022.87 1022.37 1022.06 1022.06 1022.22 1022.41 1022.51 1022.33 1022.22 1022.34 1022.28 1022.26 1022.26 1022.06 1021.82 1021.68 1021.49 1021.26 1021.15 1021.14 1021.18 1021.25 1021.22 1021.26
1017.34 1018.56 1020.05 1020.93 1021.31 1021.89 1021.82 1022.53 1022.43 1022.31 1025.04 1025.48 1025.35 1025.23 1024.72 1024.26 1024.16 1023.99 1024.33 1024.37 1024.53 1023.40 1022.24 1021.77 1021.81 1021.94 1022.10 1022.11 1022.04 1022.12 1022.17 1022.08 1021.92 1021.78 1021.54 1021.27 1021.16 1021.19 1021.14 1021.04 1020.99 1020.96 1020.98 1021.06
1017.98 1018.64 1021.16 1021.74 1022.49 1023.44 1024.14 1023.43 1021.98 1022.13 1025.01 1025.65 1025.66 1025.46 1025.03 1024.92 1025.10 1025.07 1024.68 1024.54 1024.29 1023.60 1023.29 1023.31 1022.61 1021.86 1021.80 1021.72 1021.51 1021.86 1021.83 1021.76 1021.65 1021.41 1021.14 1020.93 1020.75 1020.83 1020.84 1020.71 1020.82 1020.70 1020.68 1020.68
1019.51 1020.58 1022.10 1022.68 1023.72 1024.89 1024.83 1024.14 1022.89 1024.40 1026.70 1026.14 1026.00 1025.91 1025.86 1025.96 1026.22 1025.62 1024.99 1024.63 1024.29 1023.79 1023.57 1023.00 1022.84 1022.47 1022.05 1021.34 1021.40 1021.53 1021.46 1021.46 1021.05 1020.96 1020.74 1020.73 1020.67 1020.68 1020.50 1020.46 1020.26 1020.29 1020.28 1020.21
1021.48 1022.13 1023.09 1023.58 1024.87 1025.98 1025.42 1024.68 1025.50 1026.61 1026.40 1026.23 1026.15 1025.98 1026.09 1026.13 1025.84 1025.68 1025.32 1024.94 1024.49 1024.03 1023.46 1023.05 1022.81 1022.28 1021.55 1021.39 1021.88 1021.43 1021.11 1020.59 1020.56 1020.55 1020.45 1020.36 1020.15 1020.19 1019.96 1020.14 1020.04 1019.96 1019.89 1019.96
1022.77 1023.45 1024.41 1025.35 1026.37 1026.40 1026.14 1026.12 1026.19 1026.19 1026.46 1026.38 1026.22 1026.12 1026.05 1025.99 1025.86 1025.55 1025.23 1024.82 1024.49 1024.11 1023.60 1023.16 1022.90 1022.38 1021.75 1021.53 1021.36 1021.14 1020.55 1020.17 1020.08 1020.15 1020.12 1020.00 1019.93 1019.85 1019.69 1019.79 1019.81 1019.81 1019.67 1019.68
1023.77 1023.81 1025.14 1025.70 1026.51 1026.27 1026.02 1026.09 1026.05 1026.05 1026.13 1026.11 1025.95 1025.86 1025.85 1025.86 1025.69 1025.54 1025.22 1024.88 1024.57 1024.20 1023.69 1023.04 1022.68 1022.35 1021.82 1021.11 1020.76 1020.39 1020.18 1019.66 1019.63 1019.76 1019.70 1019.65 1019.58 1019.41 1019.35 1019.33 1019.32 1019.37 1019.23 1019.16
1024.36 1024.35 1025.16 1025.93 1026.28 1026.15 1025.89 1025.76 1025.68 1025.68 1025.68 1025.72 1025.57 1025.57 1025.67 1025.59 1025.51 1025.52 1025.46 1025.02 1024.64 1024.21 1023.63 1023.12 1022.82 1022.43 1021.87 1020.99 1020.16 1019.63 1019.54 1019.49 1019.43 1019.29 1019.32 1019.35 1019.18 1019.07 1018.96 1018.76 1018.79 1018.85 1018.52 1018.54
1025.17 1025.25 1025.45 1025.86 1025.94 1025.85 1025.71 1025.35 1025.33 1025.56 1025.65 1025.73 1025.68 1025.49 1025.37 1025.41 1025.45 1025.25 1025.07 1024.87 1024.52 1024.22 1023.69 1023.27 1022.93 1022.56 1022.07 1021.56 1021.02 1020.46 1020.39 1019.75 1019.63 1019.58 1019.17 1019.02 1018.88 1018.65 1018.54 1018.40 1018.24 1018.03 1017.90 1017.66
Thickness
5809 5783 5769 5792 5791 5782 5760 5745 5725 5729 5733 5709 5694 5680 5649 5677 5663 5652 5666 5658 5652 5645 5648 5648 5643 5637 5629 5624 5618 5610 5602 5595 5589 5582 5576 5573 5566 5562 5559 5556 5553 5549 5545 5542
5781 5766 5797 5806 5793 5780 5769 5748 5732 5748 5727 5700 5701 5671 5666 5664 5659 5669 5655 5643 5638 5635 5638 5640 5637 5633 5626 5620 5611 5599 5592 5584 5580 5576 5567 5561 5557 5556 5553 5550 5546 5541 5536 5532
5764 5771 5799 5782 5776 5764 5755 5739 5748 5740 5727 5704 5695 5662 5667 5663 5649 5650 5637 5631 5623 5627 5636 5635 5636 5631 5626 5619 5610 5597 5584 5578 5571 5566 5560 5554 5551 5547 5544 5542 5538 5534 5529 5525
5779 5797 5780 5766 5753 5758 5732 5749 5751 5762 5742 5688 5698 5640 5651 5656 5640 5632 5633 5631 5625 5625 5638 5636 5634 5625 5620 5613 5604 5590 5580 5570 5564 5562 5556 5549 5544 5540 5539 5536 5532 5529 5524 5518
5767 5769 5770 5767 5762 5763 5748 5765 5761 5762 5741 5699 5670 5647 5639 5640 5633 5628 5635 5632 5629 5631 5636 5628 5623 5617 5616 5608 5590 5579 5571 5563 5561 5558 5553 5547 5542 5538 5536 5532 5527 5523 5518 5514
5773 5791 5775 5766 5766 5765 5768 5756 5743 5746 5714 5652 5645 5640 5628 5626 5624 5630 5636 5632 5635 5631 5625 5617 5615 5612 5602 5592 5582 5574 5566 5561 5560 5556 5552 5547 5541 5536 5532 5527 5522 5518 5514 5511
5765 5763 5764 5763 5743 5759 5752 5726 5684 5673 5665 5633 5648 5631 5617 5634 5638 5640 5637 5634 5634 5629 5617 5618 5616 5605 5598 5587 5575 5569 5565 5563 5558 5555 5551 5546 5541 5537 5532 5526 5521 5516 5510 5507
5736 5726 5752 5751 5742 5734 5737 5723 5681 5660 5654 5635 5641 5617 5620 5631 5639 5647 5643 5636 5629 5624 5621 5617 5609 5600 5591 5581 5569 5568 5567 5562 5557 5554 5550 5546 5542 5538 5533 5528 5523 5517 5510 5506
5731 5740 5773 5750 5754 5744 5729 5702 5726 5696 5662 5629 5612 5619 5624 5636 5632 5634 5628 5621 5617 5614 5613 5610 5605 5597 5583 5576 5573 5569 5565 5559 5555 5552 5548 5545 5543 5540 5535 5531 5524 5519 5513 5509
5744 5720 5747 5751 5757 5742 5720 5726 5681 5671 5636 5613 5608 5607 5611 5627 5630 5628 5623 5619 5616 5616 5612 5609 5598 5590 5586 5580 5573 5567 5563 5558 5554 5551 5547 5544 5543 5541 5537 5532 5526 5521 5516 5512
5742 5724 5713 5731 5705 5697 5697 5688 5686 5662 5645 5623 5605 5596 5634 5632 5633 5625 5627 5625 5619 5614 5605 5599 5597 5593 5583 5576 5572 5566 5561 5556 5552 5549 5547 5543 5542 5540 5537 5533 5529 5524 5519 5515
5740 5721 5689 5695 5712 5709 5692 5675 5675 5642 5634 5627 5614 5602 5638 5635 5632 5627 5623 5619 5620 5614 5607 5603 5598 5592 5580 5576 5568 5564 5559 5555 5551 5549 5546 5543 5542 5539 5537 5534 5531 5526 5522 5520
5727 5706 5676 5676 5690 5692 5678 5681 5677 5664 5650 5631 5608 5597 5635 5637 5630 5628 5624 5626 5618 5616 5610 5606 5598 5589 5581 5573 5566 5561 5558 5555 5552 5549 5546 5543 5541 5539 5538 5536 5534 5530 5527 5525
5726 5697 5678 5653 5660 5668 5661 5668 5668 5654 5627 5625 5615 5615 5623 5623 5621 5622 5618 5620 5613 5614 5612 5603 5595 5586 5579 5572 5566 5561 5558 5555 5552 5549 5546 5544 5543 5541 5540 5539 5536 5533 5531 5529
5706 5675 5681 5676 5678 5673 5668 5662 5657 5641 5638 5619 5618 5615 5619 5623 5623 5622 5621 5615 5609 5604 5600 5596 5588 5579 5575 5569 5566 5561 5558 5555 5551 5549 5547 5546 5544 5543 5542 5541 5539 5536 5534 5532
5707 5668 5674 5666 5678 5670 5655 5658 5652 5647 5638 5630 5622 5609 5618 5619 5620 5613 5608 5607 5600 5596 5593 5590 5587 5580 5574 5571 5565 5562 5558 5553 5552 5549 5548 5548 5547 5544 5542 5542 5541 5540 5538 5536
5692 5678 5660 5645 5662 5661 5630 5643 5646 5633 5626 5619 5598 5605 5610 5605 5603 5601 5599 5599 5596 5592 5589 5583 5581 5576 5571 5568 5565 5559 5557 5554 5551 5549 5549 5549 5548 5545 5546 5543 5543 5541 5540 5540
5685 5673 5660 5639 5650 5607 5642 5653 5646 5621 5610 5605 5600 5599 5599 5593 5592 5594 5590 5577 5585 5588 5587 5580 5575 5572 5567 5565 5562 5559 5556 5552 5549 5549 5548 5548 5548 5548 5548 5546 5545 5544 5543 5542
5696 5672 5649 5630 5632 5635 5638 5629 5625 5622 5588 5593 5589 5588 5594 5593 5587 5583 5576 5570 5560 5567 5578 5578 5573 5570 5565 5562 5559 5554 5552 5550 5549 5548 5547 5549 5549 5547 5547 5546 5545 5546 5545 5544
5694 5687 5644 5633 5621 5606 5610 5624 5642 5635 5582 5591 5588 5585 5581 5578 5563 5560 5567 5563 5560 5563 5561 5556 5561 5563 5559 5558 5557 5550 5548 5547 5546 5547 5548 5548 5549 5548 5547 5548 5546 5547 5548 5547
5657 5655 5636 5632 5621 5605 5611 5618 5630 5582 5569 5582 5582 5574 5565 5555 5552 5554 5555 5552 5551 5549 5548 5552 5548 5549 5551 5555 5551 5546 5544 5543 5546 5545 5547 5546 5545 5545 5546 5546 5549 5549 5550 5551
5641 5636 5628 5629 5609 5591 5609 5610 5585 5577 5579 5575 5568 5563 5557 5551 5547 5543 5542 5539 5539 5538 5541 5542 5539 5542 5546 5545 5536 5537 5540 5544 5544 5542 5543 5543 5545 5544 5547 5545 5547 5548 5550 5550
5627 5632 5617 5609 5591 5599 5598 5590 5587 5581 5570 5565 5559 5554 5547 5540 5533 5530 5527 5526 5525 5524 5526 5528 5528 5531 5535 5536 5536 5536 5537 5541 5541 5539 5539 5539 5541 5542 5543 5543 5545 5544 5547 5548
5635 5637 5609 5607 5597 5594 5592 5588 5583 5574 5566 5561 5557 5549 5540 5531 5525 5521 5518 5515 5513 5513 5514 5516 5517 5519 5523 5529 5532 5534 5534 5537 5537 5535 5536 5536 5537 5539 5540 5540 5541 5543 5543 5546
5626 5627 5610 5597 5594 5590 5586 5583 5577 5572 5568 5561 5554 5547 5536 5528 5522 5515 5509 5507 5506 5504 5506 5507 5507 5509 5514 5521 5526 5531 5532 5532 5531 5532 5532 5531 5533 5534 5536 5538 5539 5541 5545 5547
5618 5608 5598 5586 5590 5583 5578 5581 5575 5564 5559 5553 5546 5540 5535 5525 5517 5514 5508 5505 5503 5502 5502 5501 5500 5500 5503 5505 5509 5514 5515 5520 5518 5521 5524 5526 5527 5529 5531 5533 5536 5540 5542 5546